Location: Fredericksburg
(30.2750°N, 98.8720°W)
Time: 00:01:00
(UTC-05:00)

ISS - All Passes

Search period start: 04 July 2015 00:00
Search period end: 14 July 2015 00:00
Orbit: 398 x 403 km, 51.6° (Epoch: 03 July)

Date Brightness Start Highest point End Pass type
(mag) Time Alt. Az. Time Alt. Az. Time Alt. Az.
04 Jul - 08:18:54 10° SW 08:22:07 83° SE 08:25:22 10° NE daylight
04 Jul - 16:27:02 10° NW 16:30:16 71° NE 16:33:28 10° SE daylight
05 Jul - 07:25:48 10° SSW 07:28:42 31° SE 07:31:38 10° ENE daylight
05 Jul - 09:02:56 10° W 09:05:10 17° NW 09:07:21 10° N daylight
05 Jul - 15:33:49 10° NNW 15:36:41 30° NE 15:39:35 10° ESE daylight
05 Jul - 17:10:53 10° W 17:12:55 15° SW 17:14:51 10° SSW daylight
06 Jul - 06:33:37 10° SSE 06:35:18 14° SE 06:37:06 10° E daylight
06 Jul - 08:08:31 10° WSW 08:11:30 33° NW 08:14:28 10° NNE daylight
06 Jul - 14:41:00 10° N 14:43:00 15° NE 14:45:04 10° ENE daylight
06 Jul - 16:16:31 10° WNW 16:19:30 35° SW 16:22:29 10° SSE daylight
07 Jul - 07:14:41 10° SW 07:17:56 81° NW 07:21:10 10° NE daylight
07 Jul - 15:22:49 10° NW 15:26:03 86° NE 15:29:16 10° SE daylight
08 Jul - 06:21:25 10° SSW 06:24:26 38° SE 06:27:29 10° ENE daylight
08 Jul - 07:58:59 10° WNW 08:00:59 15° NW 08:02:54 10° N daylight
08 Jul - 14:29:29 10° NNW 14:32:29 35° NE 14:35:28 10° ESE daylight
08 Jul - 16:07:02 10° W 16:08:39 13° SW 16:10:07 10° SSW daylight
09 Jul - 05:28:55 10° SSE 05:31:00 16° SE 05:33:11 10° E visible
09 Jul - 07:04:23 10° WSW 07:07:15 28° NW 07:10:06 10° NNE daylight
09 Jul - 13:36:31 10° N 13:38:46 18° NE 13:41:04 10° E daylight
09 Jul - 15:12:20 10° WNW 15:15:13 29° SW 15:18:03 10° SSE daylight
10 Jul - 06:10:24 10° SW 06:13:37 66° NW 06:16:51 10° NE visible
10 Jul - 14:18:29 10° NW 14:21:43 77° SW 14:24:56 10° SE daylight
11 Jul - 05:16:58 10° SSW 05:20:06 46° SE 05:23:13 10° NE visible
11 Jul - 06:55:01 10° WNW 06:56:42 13° NW 06:58:18 10° N daylight
11 Jul - 13:25:03 10° NNW 13:28:08 41° NE 13:31:12 10° ESE daylight
11 Jul - 15:03:21 10° WSW 15:04:15 11° SW 15:05:00 10° SW daylight
12 Jul - 04:24:13 10° S 04:26:36 19° SE 04:29:03 10° E visible
12 Jul - 06:00:09 10° W 06:02:54 24° NW 06:05:37 10° NNE visible
12 Jul - 12:31:58 10° NNW 12:34:25 20° NE 12:36:55 10° E daylight
12 Jul - 14:08:04 10° WNW 14:10:48 25° SW 14:13:28 10° S daylight
13 Jul - 05:06:01 10° WSW 05:09:12 54° NW 05:12:24 10° NE visible
13 Jul - 11:39:40 10° NNE 11:40:34 11° NNE 11:41:34 10° NE daylight
13 Jul - 13:14:05 10° NW 13:17:16 63° SW 13:20:28 10° SSE daylight
